Location: Peterborough
(44.3091°N, 78.3197°W)
Time: 08:05:43
(UTC-05:00)

A-11 Canister half - Pass Details

Date: 16 December 2023
Orbit: 1512 x 1687 km, 47.2° (Epoch: 25 February)

Event Time Altitude Azimuth Distance (km) Brightness Sun altitude
Exits shadow 03:05:58 29° 133° (SE) 2,720 10.3 -48.3°
Drops below altitude 10° 03:10:03 10° 128° (SE) 3,925 11.4 -47.6°
Sets 03:13:14 0° 126° (SE) 4,923 12.0 -47.0°
